ContactaLinksHome
    
DADES METEOROLÒGIQUES DE LES ÚLTIMES 24 HORES
 

Taire  Temperatura de l'aire  (ºC)
HumitatR  Humitat relativa de l'aire (%)
Pluja  Litres de pluja per metre cuadrat caiguts en 10 minuts (l/m²)
VelVent  Velocitat mitjana del vent (m/s)
DirVent  Direcció del vent  (º)
RadSolar  Intensitat de Radiació solar (w/m²)
PressAtm  Pressió atmosfèrica (mb)
  ***Dades sense verificar
DataTaireHumitatRPlujaVelVentDirVentRadSolarPressAtm
26/09/2017 19:50:0021.8560,01.812301021
26/09/2017 19:40:0021.7560,01.712801021
26/09/2017 19:30:0021.7570,02.410101021
26/09/2017 19:20:0021.6580,02.99701021
26/09/2017 19:10:0021.6600,02.911701021
26/09/2017 19:00:0021.6610,03.010701021
26/09/2017 18:50:0021.6620,03.210301020
26/09/2017 18:40:0021.5630,03.710701020
26/09/2017 18:30:0021.4630,03.910201020
26/09/2017 18:20:0021.3630,04.511901020
26/09/2017 18:10:0021.1660,04.510901020
26/09/2017 18:00:0021.0670,04.710401020
26/09/2017 17:50:0021.0680,05.110001020
26/09/2017 17:40:0021.0680,05.110711020
26/09/2017 17:30:0020.9700,05.511341020
26/09/2017 17:20:0020.9710,06.010051019
26/09/2017 17:10:0021.2720,06.09771019
26/09/2017 17:00:0022.0710,04.8115251019
26/09/2017 16:50:0021.9620,04.1150711019
26/09/2017 16:40:0022.0630,04.21941461019
26/09/2017 16:30:0022.1650,04.21801851019
26/09/2017 16:20:0022.0630,04.21831741019
26/09/2017 16:10:0022.0620,04.91912331019
26/09/2017 16:00:0022.0620,05.11961951019
26/09/2017 15:50:0021.9620,05.11902521019
26/09/2017 15:40:0022.0620,05.31853671019
26/09/2017 15:30:0022.0620,05.61982471019
26/09/2017 15:20:0022.0600,05.31942311019
26/09/2017 15:10:0022.0620,06.12013351019
26/09/2017 15:00:0021.9610,05.52063491019
26/09/2017 14:50:0021.9620,05.72053031019
26/09/2017 14:40:0021.9620,05.72073321019
26/09/2017 14:30:0022.0630,06.02005931019
26/09/2017 14:20:0022.0620,06.01994461019
26/09/2017 14:10:0022.0610,05.91905591019
26/09/2017 14:00:0021.9600,06.11921311019
26/09/2017 13:50:0021.9610,05.91991361019
26/09/2017 13:40:0022.0620,06.32081771019
26/09/2017 13:30:0022.0610,06.32114621019
26/09/2017 13:20:0022.1620,06.42026641019
26/09/2017 13:10:0022.0610,06.52035321019
26/09/2017 13:00:0021.9610,06.72041831019
26/09/2017 12:50:0021.9620,06.62063041019
26/09/2017 12:40:0021.9620,06.51971741019
26/09/2017 12:30:0021.8600,06.6201871019
26/09/2017 12:20:0021.9610,06.41921431019
26/09/2017 12:10:0022.1610,05.71993371019
26/09/2017 12:00:0022.0620,05.31844441019
26/09/2017 11:50:0022.0600,05.01855961019
26/09/2017 11:40:0022.0620,05.11858001020
26/09/2017 11:30:0022.1610,04.41747711020
26/09/2017 11:20:0022.1590,04.01657601020
26/09/2017 11:10:0022.1580,03.41617671020
26/09/2017 11:00:0022.2570,03.51645941020
26/09/2017 10:50:0022.2570,03.61646961020
26/09/2017 10:40:0022.1570,03.01643601020
26/09/2017 10:30:0022.6560,03.62143201020
26/09/2017 10:20:0022.6520,03.03463311020
26/09/2017 10:10:0022.4510,03.53453951020
26/09/2017 10:00:0022.4530,03.13424721020
26/09/2017 9:50:0022.3540,02.53426891020
26/09/2017 9:40:0022.1550,02.23475281020
26/09/2017 9:30:0021.8560,02.13306431020
26/09/2017 9:20:0021.5560,02.53274401020
26/09/2017 9:10:0021.3560,02.43234501020
26/09/2017 9:00:0021.0570,02.52763231020
26/09/2017 8:50:0020.9570,02.52603121020
26/09/2017 8:40:0020.6590,02.32983571020
26/09/2017 8:30:0020.4600,02.02604651020
26/09/2017 8:20:0020.2600,02.43044231020
26/09/2017 8:10:0020.0610,02.93462691020
26/09/2017 8:00:0019.9610,02.03333571020
26/09/2017 7:50:0019.6620,03.13173261020
26/09/2017 7:40:0019.4620,02.92933071020
26/09/2017 7:30:0019.4640,02.42952721020
26/09/2017 7:20:0019.2640,02.43202421019
26/09/2017 7:10:0019.0660,02.33102131020
26/09/2017 7:00:0018.7680,01.93301821020
26/09/2017 6:50:0018.6680,02.43081101020
26/09/2017 6:40:0018.4690,02.9327871020
26/09/2017 6:30:0018.2700,02.3293871020
26/09/2017 6:20:0018.0710,02.0311291020
26/09/2017 6:10:0018.0720,01.1335221019
26/09/2017 6:00:0017.9730,01.6312141019
26/09/2017 5:50:0017.7730,02.732041019
26/09/2017 5:40:0017.9730,02.934201019
26/09/2017 5:30:0018.0720,02.432001019
26/09/2017 5:20:0018.0720,03.132301019
26/09/2017 5:10:0018.2710,01.733301019
26/09/2017 5:00:0018.1710,02.329301019
26/09/2017 4:50:0018.1720,02.331501019
26/09/2017 4:40:0017.9730,01.430701019
26/09/2017 4:30:0018.0730,01.733901019
26/09/2017 4:20:0018.1720,02.534601019
26/09/2017 4:10:0018.1720,02.432001019
26/09/2017 4:00:0018.1720,02.831701019
26/09/2017 3:50:0018.0720,02.930701019
26/09/2017 3:40:0018.0730,03.432101019
26/09/2017 3:30:0018.0720,03.332101019
26/09/2017 3:20:0018.1730,02.730201019
26/09/2017 3:10:0018.0720,02.427601019
26/09/2017 3:00:0018.1720,02.128601019
26/09/2017 2:50:0018.1710,02.430401019
26/09/2017 2:40:0018.2710,03.230601019
26/09/2017 2:30:0018.4700,03.329901019
26/09/2017 2:20:0018.4690,03.631601019
26/09/2017 2:10:0018.5690,03.730701018
26/09/2017 2:00:0018.7680,03.032001018
26/09/2017 1:50:0018.7680,03.332001018
26/09/2017 1:40:0018.7680,03.232701019
26/09/2017 1:30:0018.7690,03.232101019
26/09/2017 1:20:0018.7690,03.433001019
26/09/2017 1:10:0018.7680,03.330401019
26/09/2017 1:00:0018.8690,03.130301019
26/09/2017 0:50:0018.8690,03.133301019
26/09/2017 0:40:0018.9680,02.930401019
26/09/2017 0:30:0018.9670,03.031901019
26/09/2017 0:20:0018.9680,03.232501019
26/09/2017 0:10:0018.7680,03.233001019
26/09/2017 0:00:0018.8680,02.831301019
25/09/2017 23:50:0018.8680,02.931501019
25/09/2017 23:40:0018.7690,03.532401019
25/09/2017 23:30:0018.8680,03.433101019
25/09/2017 23:20:0019.1660,03.030901019
25/09/2017 23:10:0019.3640,02.933301019
25/09/2017 23:00:0019.4630,02.833801019
25/09/2017 22:50:0019.4630,03.433101019
25/09/2017 22:40:0019.8620,02.833201019
25/09/2017 22:30:0020.1610,02.533301019
25/09/2017 22:20:0020.7600,02.134401019
25/09/2017 22:10:0020.8590,03.53501019
25/09/2017 22:00:0020.6580,01.04701019
25/09/2017 21:50:0020.6570,01.633201019
25/09/2017 21:40:0020.5570,01.24301019
25/09/2017 21:30:0020.4580,02.033501019
25/09/2017 21:20:0020.2580,03.032501019
25/09/2017 21:10:0020.2580,02.032401019
25/09/2017 21:00:0020.2590,02.228501019
25/09/2017 20:50:0020.4590,01.527201019
25/09/2017 20:40:0020.3600,01.333701019
25/09/2017 20:30:0020.4590,01.330401019
25/09/2017 20:20:0020.3600,02.62301019
25/09/2017 20:10:0020.0600,03.432301019
25/09/2017 20:00:0020.9610,03.932101019

ÚLTIMES FOTOS WEBCAM
Imatges del Pont
ÚLTIMES DADES

26/09/2017  
21:50h Local  (19:50 GMT)
 
 Velocitat mitjana del Vent
   1,8 m/s
 Direcció del Vent
   123º
 Humitat Relativa
   56 %
 Temperatura Aparent
   21,4 ºC
 Pluja Acumulada
   0,0 l/m²
      
 Temperatura de l'aigua    N/A
 Alçada d'ona    N/A
 Direcció d'ona    N/A
 Velocitat del corrent    N/A
 Direcció del corrent    N/A